Location: Dompnac
(44.5644°N, 4.1026°E)
Time: 11:00:14
(UTC+00:00)

ARIANE 5 R/B - Pass Details

Date: 19 September 2020
Orbit: 620 x 657 km, 98.2° (Epoch: 23 October)

Event Time Altitude Azimuth Distance (km) Brightness Sun altitude
Exits shadow 20:01:02 26° 31° (NNE) 1,231 4.0 -23.9°
Drops below altitude 10° 20:03:28 10° 5° (N) 2,001 5.4 -24.3°
Sets 20:05:49 0° 356° (N) 2,910 6.5 -24.7°
